Reflectivity
16 16 17 -6 5 13 -19 -6 19 16 9 6 5 12 13 25 30 33 35 32 23 35 14 -20 0 0 3 13 10 13 29 11 20 10 10 8 -1 -20 -20 -20 -20 -19 23 24 15 22 5 -8 28 29 19 2 -20 -5
12 17 16 16 13 15 12 10 9 9 -17 3 -12 1 11 -20 11 35 32 28 10 27 28 -2 2 10 13 17 28 30 2 15 -20 -20 -20 -20 -20 -20 -20 -20 -20 -20 -18 10 -15 10 -15 10 23 29 15 36 -2 -20
-3 3 16 10 -16 -20 11 -20 -20 -20 -20 -20 -20 -9 -12 2 -4 22 37 20 23 32 27 -3 18 -17 10 24 11 1 -20 14 28 -15 26 -9 -20 -20 -20 -20 -20 -20 -20 -12 -15 -14 8 -20 20 8 -20 -20 13 -3
15 13 1 11 10 6 -19 -8 2 7 11 2 -16 -9 -19 12 11 22 29 37 18 31 20 16 -20 -7 -10 17 19 -19 -15 11 6 11 11 12 6 -20 -20 -20 -20 -20 -20 -20 -20 -14 4 -15 20 1 -20 -20 -20 21
-10 9 23 22 17 13 10 8 9 13 15 15 17 20 15 22 22 18 14 35 34 9 21 10 -20 -20 -18 -17 -20 -20 -15 10 7 14 26 27 28 22 -15 -20 -20 -20 -20 -20 -20 -6 8 4 -8 11 -17 -20 -20 -13
25 14 13 8 17 14 16 15 13 26 30 29 22 8 14 20 22 30 27 9 29 35 21 1 -6 -20 -20 -18 -5 -19 0 15 23 25 27 18 2 -20 -20 -20 -20 -20 -20 -20 -20 -20 -20 9 -18 -20 -20 -20 -20 -20
-13 14 22 20 -9 -20 -20 -20 -20 6 9 16 20 17 -12 4 30 35 17 -0 -2 13 33 5 25 -20 -20 -20 0 7 14 14 16 25 11 -12 -20 3 -20 -1 -20 -20 -20 -20 -20 -20 -20 1 -20 -20 -20 -20 -20 -20
-1 14 -6 1 -8 -12 4 -2 5 -1 15 16 15 18 20 26 30 30 -11 -20 -20 -6 22 9 27 13 -18 10 11 -4 14 21 27 19 27 3 -20 -20 9 -20 -20 -20 -20 -20 -20 -20 -20 -20 -20 -20 -20 -20 -20 -4
-14 11 17 -11 6 5 13 7 -3 19 20 21 19 22 26 36 39 27 28 13 7 -20 14 -6 1 13 9 -9 9 11 12 27 23 29 -9 -20 -20 -20 -20 -20 -20 -20 -20 -20 -20 -20 -20 -20 -20 -19 -20 -20 -13 -20
28 13 -1 32 6 12 19 25 27 26 27 23 32 40 24 37 33 24 31 31 24 -17 18 -20 29 18 13 17 20 24 10 14 -17 -20 -20 -20 -20 -20 -20 -20 -20 -20 -20 -20 -20 -20 -20 -20 -20 -20 -20 -20 -20 -20
-11 10 24 32 18 27 36 33 28 32 34 35 35 29 25 26 12 32 21 7 24 17 -17 -20 -20 2 -16 13 10 26 19 -3 7 -19 -20 -20 -20 -20 -20 -20 -20 -20 -20 -20 -20 -20 -20 -20 -20 -20 -20 -20 -20 -20
1 -14 -17 22 32 24 -9 9 4 -4 -9 11 30 26 31 32 30 13 3 22 10 -20 -20 -20 -19 -20 -15 -3 -12 23 1 4 -20 -20 -20 -20 -20 -15 -20 -20 -20 -20 -20 -20 -20 -20 -20 -20 -20 -20 -19 -20 -20 -20
16 12 -20 -7 8 31 20 27 12 -0 8 -2 -5 14 4 -6 12 -5 -18 -10 -18 -17 -9 -15 -20 -20 -19 10 23 24 16 -16 -20 -17 -18 -19 -20 -20 -20 -20 -20 -11 -1 -7 -20 -20 -20 -20 -20 -20 -1 -20 -20 -20
-5 -11 0 23 -7 19 20 15 11 15 -2 -20 -20 13 15 -20 -20 -20 -20 -19 -12 -20 -20 -20 -20 -12 -19 2 -18 -20 -20 -17 -5 -15 -20 -19 -19 -16 -20 -20 -15 -7 6 -13 -17 0 -14 -15 -20 -20 -20 -20 -20 -20
-2 -19 -20 -20 -20 -0 -7 -5 2 -14 -8 -20 -20 -20 -20 -4 -19 -15 -14 -2 -13 -20 -20 -20 -20 -20 -20 -20 -18 -20 -20 -20 -20 -20 -20 -20 -20 -20 -20 -18 -16 -11 -12 -13 -13 -8 -15 -4 15 19 9 17 6 -20
-20 -20 -20 -20 -20 -20 -18 -19 -20 -20 -20 -20 -20 -20 -19 -9 -5 -15 -1 -9 -18 -20 -20 -20 -20 -20 -20 -20 -20 -20 -20 -20 -20 -20 -15 -15 -19 -15 -16 -16 2 8 10 13 14 19 21 27 35 34 29 5 5 11
-20 -20 -20 -20 -20 -20 -20 -20 -20 -20 -20 -20 -12 -18 -5 -16 -17 -17 5 -4 -13 -20 -20 -20 -20 -20 -20 -20 -20 -20 -20 -20 -18 -20 -20 -8 16 14 13 -1 -10 4 11 11 14 17 24 26 24 26 21 16 10 7
-20 -20 -20 -20 -20 -20 -20 -20 -20 -20 -20 -20 -20 -5 -4 -17 -11 -18 -17 -3 -17 -20 -20 -19 -20 -17 -20 -19 -20 -17 -15 5 -5 7 0 3 5 5 11 6 -1 3 -10 -3 8 18 20 19 18 16 12 14 10 8
-20 -20 -20 -20 -20 -20 -20 -20 -20 -20 -20 -20 -20 -20 -20 -2 4 4 5 6 3 -2 12 9 8 -2 -4 15 1 3 4 -3 8 13 9 16 12 2 5 5 4 7 8 10 11 12 15 16 12 11 9 14 6 -0
-20 -20 -20 -20 -20 -20 -20 -20 -20 -20 -20 -20 -20 -20 -20 -7 8 9 15 14 15 13 9 -15 -2 -0 7 8 9 9 7 11 13 14 9 7 9 9 11 8 8 9 5 5 10 13 14 11 10 9 11 12 10 7
-20 -20 -20 -20 -20 -20 -20 -20 -20 -20 -20 -20 -20 -20 -20 -20 -20 -20 -2 6 -10 5 -14 -12 -9 -2 5 -1 -16 -19 -19 -20 -18 -6 -7 -9 -3 -3 3 8 2 13 12 16 13 16 15 12 7 9 5 2 1 -7
-20 -20 -20 -20 -20 -20 -15 -19 -20 -17 -20 -20 -20 -20 -20 -20 -20 -20 -20 -20 -18 -1 0 -15 -20 -19 -20 -20 -18 -19 -15 -20 -19 -4 5 8 3 9 11 11 9 11 13 12 11 7 8 5 -6 -6 -6 -14 -20 -20
-20 -20 -20 -20 -20 -20 -20 -15 -20 -10 -20 -20 -20 -20 -20 -20 -20 -20 -20 -7 -14 -9 -18 -20 -12 -20 -20 -19 -20 -20 -19 -20 -15 1 9 11 13 14 14 11 12 10 4 7 6 5 4 -3 -13 -17 -15 -15 -18 -20
-20 -20 -20 -20 -20 -20 -20 -20 -20 -20 -20 -20 -20 -20 -20 -20 -20 -20 -18 -20 -2 -13 -18 -16 -16 -20 -20 -20 -20 -20 -17 -10 -1 -0 5 5 4 8 7 4 5 3 2 3 -5 -19 -20 -20 -20 -20 -20 -20 -20 -20
-20 -20 -20 -20 -20 -20 -20 -20 -20 -20 -20 -20 -20 -20 -20 -20 -20 -20 -20 -20 -20 -20 -20 -20 -20 -20 -20 -20 -20 -20 -20 -20 -15 -11 4 5 7 8 9 9 6 3 0 -4 -11 -20 -20 -20 -20 -20 -20 -20 -20 -20
-20 -20 -20 -20 -20 -20 -20 -20 -20 -20 -20 -20 -20 -20 -20 -20 -20 -20 -20 -20 -20 -20 -20 -20 -20 -20 -20 -20 -20 -20 -17 -8 -4 -6 4 5 6 3 5 3 0 -4 -12 -20 -20 -20 -20 -20 -20 -20 -20 -20 -20 -20
-20 -20 -20 -20 -20 -20 -20 -20 -20 -20 -20 -20 -20 -20 -20 -20 -20 -20 -20 -20 -20 -20 -20 -20 -20 -20 -20 -20 -20 -19 -19 -19 -19 -19 -13 -13 -12 -13 -13 -13 -13 -10 -13 -19 -20 -20 -20 -20 -20 -20 -20 -20 -20 -20
-20 -20 -20 -20 -20 -20 -20 -20 -20 -20 -20 -20 -20 -20 -20 -20 -20 -20 -20 -20 -20 -20 -20 -20 -20 -20 -20 -20 -20 -20 -20 -20 -20 -20 -20 -20 -20 -20 -20 -20 -20 -20 -20 -20 -20 -20 -20 -20 -20 -20 -20 -20 -20 -20
-20 -20 -20 -20 -20 -20 -20 -20 -20 -20 -20 -20 -20 -20 -20 -20 -20 -20 -20 -20 -20 -20 -20 -20 -20 -20 -20 -20 -20 -20 -20 -20 -20 -20 -20 -20 -20 -20 -20 -20 -20 -20 -20 -20 -20 -20 -20 -20 -20 -20 -20 -20 -20 -20
-20 -20 -20 -20 -20 -20 -20 -20 -20 -20 -20 -20 -20 -20 -20 -20 -19 -20 -20 -20 -20 -20 -20 -20 -20 -20 -20 -20 -20 -20 -20 -20 -20 -20 -20 -20 -20 -20 -20 -20 -20 -20 -20 -20 -20 -20 -20 -20 -20 -20 -20 -20 -20 -20
-20 -20 -20 -20 -20 -20 -20 -20 -20 -20 -20 -20 -20 -20 -20 -20 -20 -20 -20 -20 -20 -20 -20 -20 -20 -20 -20 -20 -20 -20 -20 -20 -20 -20 -20 -20 -20 -20 -20 -20 -20 -20 -20 -20 -20 -20 -20 -20 -20 -20 -20 -20 -20 -20
-20 -20 -20 -20 -20 -20 -20 -20 -20 -20 -20 -20 -20 -20 -20 -20 -20 -20 -20 -20 -20 -20 -20 -20 -20 -20 -20 -20 -20 -20 -20 -20 -20 -20 -20 -20 -20 -20 -20 -20 -20 -20 -20 -20 -20 -20 -20 -20 -20 -20 -20 -20 -20 -20
-20 -20 -20 -20 -20 -20 -20 -20 -20 -20 -20 -20 -20 -20 -20 -20 -20 -20 -20 -20 -20 -20 -20 -20 -20 -20 -20 -20 -20 -20 -20 -20 -20 -20 -20 -20 -20 -20 -20 -20 -20 -20 -20 -20 -20 -20 -20 -20 -20 -20 -20 -20 -20 -20
Wind_Speed
30 28 27 25 24 23 22 22 21 21 20 20 20 22 24 25 29 20 11 13 13 2 7 11 14 9 11 14 6 4 5 3 5 7 4 4 4 5 4 5 3 7 6 5 4 5 8 3 12 6 5 8 7 5
27 26 26 25 24 24 23 22 22 22 22 22 22 22 22 23 24 26 6 11 12 7 2 11 14 17 19 18 11 5 4 3 5 4 3 3 3 0 5 3 4 6 7 3 6 5 4 3 7 19 11 11 9 6
26 26 25 23 21 21 22 23 23 24 24 24 24 24 24 24 24 21 5 9 9 7 3 7 7 10 5 11 13 9 4 6 3 5 3 3 4 5 4 6 7 5 3 4 1 6 12 10 8 12 12 14 7 4
27 26 23 24 25 25 24 25 25 25 26 27 27 26 25 25 24 23 9 7 8 3 4 2 12 7 16 10 12 12 6 4 4 3 4 2 3 3 5 6 7 8 3 5 6 13 16 14 7 8 9 11 7 4
25 25 26 27 26 24 25 25 25 26 26 27 28 28 27 27 25 14 8 5 4 3 3 3 2 19 15 15 16 11 11 4 2 1 2 3 3 2 3 2 3 6 8 4 7 9 3 10 8 12 8 7 4 1
25 22 22 19 16 16 19 22 24 25 26 27 27 27 27 26 26 9 5 8 9 2 1 1 4 5 17 16 17 8 10 6 4 4 3 4 5 3 3 3 5 7 4 5 4 4 5 15 11 7 3 4 7 10
8 11 13 11 9 10 12 12 14 17 20 22 27 27 27 27 14 6 4 6 18 5 0 1 3 2 13 8 10 5 5 3 3 3 4 4 3 4 2 4 5 5 6 6 7 3 7 6 5 1 8 5 7 14
8 6 8 9 7 5 9 13 17 21 23 25 25 25 27 28 14 3 3 19 17 6 1 3 3 1 6 3 5 4 4 3 3 3 3 3 0 2 5 6 12 16 15 7 7 6 8 9 3 3 5 8 10 13
13 14 15 16 11 6 5 3 8 18 27 28 28 27 14 5 3 6 19 23 2 3 4 3 4 3 4 2 3 2 4 3 3 4 3 4 3 7 8 11 10 10 9 7 3 6 8 6 6 6 7 8 10 11
13 16 19 23 30 29 25 20 27 31 32 33 14 5 4 5 33 23 3 3 1 0 1 2 2 2 3 2 2 3 3 3 4 5 3 3 5 3 1 5 7 6 3 3 4 5 4 4 5 7 10 10 10 12
14 17 20 17 16 15 14 19 25 20 14 4 4 4 16 15 5 4 4 4 4 5 4 3 3 3 1 3 3 3 3 4 4 4 6 4 4 2 6 6 7 7 5 5 6 7 8 7 12 12 13 13 13 14
17 18 18 17 14 21 24 18 10 7 4 7 9 6 4 4 3 4 3 2 3 4 3 5 3 3 2 2 3 2 3 2 5 3 4 4 2 6 6 5 7 7 6 6 6 6 8 10 12 14 14 14 15 15
16 17 19 20 18 18 12 11 14 11 5 5 6 6 4 5 5 2 4 2 3 2 3 3 4 2 2 2 2 2 4 5 4 4 4 2 5 6 7 4 5 5 6 8 9 10 14 14 14 15 16 14 16 18
14 14 17 15 12 12 10 10 11 11 8 6 6 7 4 5 4 3 3 3 3 3 3 5 4 3 2 2 2 4 4 2 4 3 1 3 6 6 5 6 6 7 7 9 9 11 14 15 15 15 15 15 18 18
8 13 16 19 15 9 12 14 11 5 5 6 6 6 4 3 3 4 3 2 4 3 0 2 3 3 3 3 2 1 1 2 1 2 2 3 5 5 6 7 6 7 7 8 9 11 13 15 14 15 14 17 19 19
1 5 9 18 13 13 8 9 5 4 6 6 9 4 5 3 6 5 6 3 5 5 3 1 3 4 4 2 4 3 2 1 2 2 2 3 6 6 6 7 8 8 10 10 11 12 13 15 17 17 13 16 18 18
10 4 13 12 5 11 14 6 5 9 6 6 5 5 4 3 3 4 4 5 5 3 3 3 6 3 2 4 3 4 2 3 2 4 4 6 5 6 6 8 9 10 11 12 14 14 14 14 16 17 17 16 18 17
4 5 12 8 3 5 5 7 6 7 9 6 5 4 4 3 5 4 6 6 5 3 3 5 3 6 5 3 3 3 3 4 6 6 6 7 8 8 7 10 10 11 12 13 14 14 14 14 15 13 16 16 16 16
1 6 11 8 6 6 5 6 5 7 6 3 2 2 2 2 6 6 6 7 6 7 5 5 7 4 3 3 3 4 4 3 3 5 7 9 9 10 11 12 12 12 13 13 13 11 11 12 10 9 9 9 11 9
6 14 13 12 5 5 7 5 4 6 4 3 1 5 4 4 5 5 9 7 7 6 8 7 4 3 3 4 4 4 1 3 3 6 6 6 6 10 10 9 8 10 10 12 12 12 10 10 9 9 9 10 10 10
8 7 11 7 6 8 6 3 5 4 4 3 2 1 3 2 8 8 7 8 8 7 5 4 4 4 6 5 6 5 7 6 5 3 3 5 6 7 8 7 9 8 8 8 9 9 10 8 7 8 9 9 8 9
3 9 4 6 6 6 6 5 5 4 4 3 3 3 4 3 4 5 4 9 6 4 4 4 5 5 7 11 8 9 7 9 9 7 8 6 6 7 7 6 7 8 8 7 7 8 8 8 8 8 9 9 10 9
5 6 6 7 8 7 2 2 5 3 4 2 3 4 4 3 3 3 6 4 3 4 5 3 4 6 7 8 10 12 10 9 7 7 7 7 7 7 7 8 6 8 8 7 7 7 8 9 9 9 8 8 8 8
10 8 7 6 7 3 3 5 4 4 4 4 3 4 4 3 2 5 5 3 3 6 6 7 4 3 5 8 8 8 7 6 7 8 7 6 8 8 7 7 7 7 7 6 6 7 7 7 8 7 7 8 7 7
11 11 7 8 6 8 7 6 6 5 4 5 4 4 3 3 4 5 3 3 4 5 5 5 6 6 5 5 5 7 9 6 6 8 7 6 6 6 7 7 8 7 4 6 6 7 6 6 6 7 7 7 8 7
11 6 7 5 5 6 3 5 4 4 3 4 4 3 4 5 6 4 3 3 2 3 3 3 3 4 6 6 5 5 6 5 4 7 6 6 6 5 5 6 5 5 5 4 6 7 7 6 6 8 7 7 8 7
8 5 4 5 3 4 5 4 4 5 5 4 3 4 5 7 3 1 1 2 2 2 3 4 4 5 5 4 5 5 6 7 7 6 5 7 7 7 5 4 5 2 2 4 5 6 7 6 6 6 6 3 2 3
3 5 6 6 6 5 5 5 5 4 3 3 4 6 5 4 2 1 1 1 2 4 4 5 5 5 5 5 4 4 4 4 5 5 6 8 7 6 6 5 5 8 5 4 5 5 5 6 6 5 4 5 3 1
5 3 5 7 6 7 6 3 2 2 3 2 5 2 2 3 1 1 1 2 2 3 3 3 3 3 4 4 5 4 4 3 3 4 5 3 3 4 5 4 4 4 3 5 8 6 7 5 5 5 5 5 3 2
3 2 6 4 7 6 3 1 2 3 3 2 2 4 4 3 3 3 3 3 3 2 1 2 1 3 2 3 2 5 5 4 2 3 4 3 3 1 2 3 3 3 3 5 5 6 8 6 5 4 4 4 3 3
2 4 6 5 5 2 4 2 2 3 5 5 4 5 2 1 3 3 4 2 2 3 4 3 4 3 3 3 2 3 4 5 5 7 6 5 3 3 2 2 1 2 3 4 4 3 3 3 2 3 4 3 1 2
5 4 6 5 1 3 2 3 2 3 4 4 3 3 4 5 3 3 4 3 3 3 3 2 3 2 2 1 2 2 4 2 3 3 4 3 3 2 2 2 2 3 4 4 4 3 3 4 3 3 3 2 2 2
4 4 5 5 4 3 3 4 5 3 4 3 3 0 1 4 3 3 3 3 1 3 3 2 2 3 3 4 4 3 3 2 3 5 6 5 5 4 2 2 3 4 5 4 3 3 3 3 2 2 2 2 3 3
Wind_Direction
281 281 276 269 266 259 252 248 236 231 229 227 222 216 211 212 211 206 207 191 200 213 212 213 203 196 185 191 175 158 177 184 163 185 200 184 192 228 201 248 208 193 186 202 200 221 263 358 7 306 277 305 328 340
282 279 276 269 263 257 247 241 235 230 227 224 222 220 217 211 205 199 207 182 193 224 297 224 213 213 196 184 179 205 204 152 156 151 193 184 214 106 179 226 232 256 192 216 188 222 205 265 259 268 257 262 288 360
281 279 273 269 261 254 245 238 233 228 225 224 224 221 217 210 206 194 185 162 175 201 260 246 211 245 218 189 174 193 239 169 223 183 149 236 219 139 173 223 222 254 178 218 107 251 241 259 257 263 241 246 242 330
283 279 269 265 260 249 242 237 234 228 224 220 219 216 214 209 200 193 196 169 166 137 235 193 207 214 216 217 200 213 211 134 137 125 188 222 218 167 214 211 180 213 175 205 242 278 280 271 243 278 276 260 268 123
279 275 272 273 258 250 239 239 237 230 224 219 216 210 207 205 194 184 179 209 170 169 169 182 197 226 218 212 210 205 223 191 204 97 216 219 215 199 275 328 220 202 223 199 251 243 230 276 295 301 301 316 334 311
276 275 281 277 258 244 237 236 229 220 215 212 205 204 202 196 183 161 162 196 187 228 23 287 292 192 205 202 210 198 208 197 161 195 199 222 241 171 207 248 262 229 234 173 235 247 246 276 289 282 99 33 79 70
303 279 284 287 283 260 243 233 216 208 203 199 192 191 189 184 171 164 177 155 161 144 6 257 272 248 185 178 208 202 163 179 154 208 213 216 227 186 207 219 280 288 267 254 238 299 290 255 292 72 115 85 33 85
335 11 10 357 343 302 259 247 226 212 200 184 182 175 167 166 150 135 319 151 137 130 252 190 257 121 152 138 168 157 164 133 210 201 202 198 52 163 245 229 225 236 242 247 245 216 254 283 134 84 78 93 78 66
51 52 42 8 20 62 52 338 215 194 167 163 160 148 140 81 125 137 137 137 96 128 185 184 158 170 131 105 110 70 135 180 178 223 203 136 194 219 217 222 226 223 197 231 260 254 268 221 148 114 100 82 102 97
60 61 40 46 70 58 51 67 88 112 122 128 111 81 109 162 116 108 75 122 132 114 118 213 109 189 113 100 89 131 129 200 204 205 144 187 251 222 352 308 337 342 338 358 284 250 183 195 131 97 91 93 100 105
53 42 47 38 31 24 70 75 84 84 67 56 84 83 109 127 62 69 126 169 149 183 173 186 185 132 335 129 132 215 147 163 174 233 178 225 250 130 7 4 1 359 349 328 292 300 292 155 134 124 107 106 107 105
47 45 37 34 36 38 51 81 82 62 66 96 109 82 63 60 82 114 140 144 158 176 136 136 150 144 132 68 97 210 139 116 225 140 189 242 85 18 2 359 2 2 12 34 33 52 69 93 108 108 104 108 104 105
45 47 47 42 18 28 52 68 65 80 68 47 54 63 38 341 73 90 158 125 114 104 150 154 113 113 120 144 125 156 159 204 113 202 211 41 7 7 350 338 42 54 73 85 80 84 88 90 94 103 109 107 106 101
26 38 55 53 30 38 53 68 38 30 49 59 54 59 66 1 28 23 341 14 40 320 95 105 100 125 144 86 113 125 210 150 221 224 176 1 4 6 12 25 50 54 70 86 91 96 95 97 97 100 106 110 107 101
39 29 22 16 24 38 64 75 83 62 64 59 34 51 55 32 5 353 321 40 359 307 290 134 99 95 71 101 16 29 79 95 90 282 325 332 12 25 30 44 52 57 63 72 81 89 92 93 90 93 99 104 101 99
182 36 20 354 13 26 37 64 49 73 61 67 42 22 351 26 1 6 358 5 359 326 259 29 97 82 45 62 53 27 65 16 317 357 13 13 39 41 45 55 62 70 72 76 77 80 84 92 99 94 89 92 93 102
78 28 330 333 46 43 37 71 48 50 59 56 45 9 7 40 355 333 330 332 310 314 50 24 56 54 15 59 55 21 62 343 29 39 38 44 47 54 63 75 79 84 87 88 90 90 91 93 92 98 90 84 87 86
45 297 330 354 57 52 39 41 73 62 64 39 74 43 43 32 350 355 340 337 353 45 39 56 40 45 34 39 30 350 54 43 46 46 40 46 55 57 63 73 77 82 85 85 85 88 87 89 91 88 91 92 90 85
194 16 10 30 82 86 66 35 58 85 49 51 40 6 30 22 22 10 4 4 30 38 76 53 56 40 10 8 332 342 20 38 62 53 47 43 55 67 67 67 67 71 75 77 80 78 78 78 84 88 87 89 88 87
22 28 17 38 66 76 67 37 60 83 78 122 98 62 71 35 351 7 23 18 32 57 50 45 35 349 314 301 276 260 50 71 89 78 55 40 44 61 56 67 68 73 75 76 73 75 79 74 63 71 79 85 93 92
30 355 360 42 41 61 80 68 60 97 130 95 164 131 68 38 31 27 28 358 51 38 59 19 354 358 354 4 13 37 46 53 53 67 89 73 48 61 63 59 64 66 68 71 78 73 70 74 76 76 80 82 84 87
337 352 49 26 73 68 75 34 96 125 78 125 106 65 50 37 6 21 25 32 57 27 18 354 356 358 22 28 26 32 45 61 59 61 51 59 66 61 55 55 73 73 66 66 74 79 77 77 82 83 85 88 84 87
2 32 36 27 66 55 17 41 68 36 78 70 62 55 38 41 26 40 67 46 48 5 346 350 18 27 35 30 41 40 38 58 62 59 62 67 65 62 64 57 60 81 83 68 74 84 85 84 81 87 88 86 91 90
32 48 37 44 43 68 28 31 29 50 46 31 62 76 55 60 55 60 70 51 6 350 5 5 9 37 37 38 40 31 29 48 63 55 44 66 71 59 60 64 59 57 65 82 81 83 83 86 91 88 91 93 91 99
66 354 50 12 3 55 42 27 10 43 55 30 66 42 19 37 68 64 68 12 356 3 357 8 32 32 49 49 40 40 33 40 63 69 43 53 74 79 69 63 57 48 59 90 84 90 87 90 92 99 103 107 110 107
69 336 55 23 5 65 28 63 40 29 41 56 40 18 36 64 65 57 49 353 348 351 349 4 24 49 46 31 37 23 8 8 55 67 32 24 41 67 82 81 72 47 27 72 107 105 99 99 105 106 102 101 104 110
60 357 25 30 16 78 56 34 40 67 60 36 331 32 58 66 60 46 84 7 25 351 28 30 45 59 67 60 53 43 43 47 60 71 62 47 43 37 45 77 81 44 39 81 92 114 121 118 113 112 112 74 81 141
97 43 67 325 50 34 90 46 39 36 355 359 61 40 97 137 174 272 91 37 64 64 59 52 47 52 60 57 55 59 60 62 88 94 81 57 46 37 38 45 45 57 57 57 89 91 100 115 123 132 133 143 178 203
42 350 70 31 40 43 41 73 16 346 344 76 105 102 88 59 298 89 62 77 72 79 76 70 36 35 59 55 43 33 20 17 74 62 71 68 24 16 7 34 42 37 40 76 81 94 107 111 131 134 138 133 143 111
10 40 85 60 56 41 310 63 336 301 346 56 83 93 60 32 2 1 51 53 75 95 122 114 79 79 84 72 12 30 27 17 40 129 141 160 190 218 35 49 61 35 40 77 81 72 64 59 67 49 56 49 41 58
53 67 69 57 76 282 220 278 325 78 33 41 21 88 91 351 357 19 33 11 83 71 67 47 44 37 72 45 83 58 22 5 24 56 74 84 87 75 68 67 67 89 82 94 91 89 91 56 82 102 97 103 74 98
39 76 115 98 153 281 48 58 66 73 347 47 352 27 17 43 29 314 339 5 45 56 51 80 78 5 342 45 57 65 86 101 45 45 69 85 77 41 42 55 71 84 84 82 80 85 80 110 116 136 152 186 218 250
66 61 59 87 50 10 303 80 27 41 30 36 2 81 145 141 170 264 318 16 149 149 140 121 106 89 77 80 103 93 76 86 70 66 74 81 94 91 70 50 61 79 97 98 90 93 104 109 126 161 181 228 248 248